Gardner, KS

6:33 AM CDT on September 25, 2016 (GMT -0500)
New Century Aircenter

Weather History for KIXD - March, 2013

Change the Weather History Date:

Thursday, March 21, 2013

  Actual Average Record
Temperature  
Mean Temperature 26 °F -  
Max Temperature 28 °F 54 °F 82 °F (1997)
Min Temperature 24 °F 33 °F 16 °F (2002)
Degree Days  
Heating Degree Days 39    
Moisture  
Dew Point 19 °F    
Average Humidity 75    
Maximum Humidity 93    
Minimum Humidity 51    
Precipitation  
Precipitation 0.01 in - - ()
Sea Level Pressure  
Sea Level Pressure 29.99 in    
Wind  
Wind Speed 8 mph (ESE)    
Max Wind Speed 15 mph    
Max Gust Speed 21 mph    
Visibility 5 miles    
Events Snow    
Averages and records for this station are not official NWS values.
T = Trace of Precipitation, MM = Missing Value Source: NWS Daily Summary

Daily Weather History Graph

Daily Weather History Graph

Search for Another Location

Airport or City:

Trip Planner

Search our weather history database for the weather conditions in past years. The results will help you decide how hot, cold, wet, or windy it might be!

Date:

Astronomy

Mar. 21, 2013 Rise Set
Actual Time 7:21 AM CDT 7:32 PM CDT
Civil Twilight 6:54 AM CDT 7:59 PM CDT
Nautical Twilight 6:23 AM CDT 8:30 PM CDT
Astronomical Twilight 5:51 AM CDT 9:02 PM CDT
Moon 2:06 PM CDT (3/21) 3:40 AM CDT (3/21)
Length of Visible Light 13h 04m
Length of Day
12h 11m
Waxing Gibbous, 69% of the Moon is Illuminated
Mar 21
Waxing Gibbous
Mar 27
Full
Apr 2
Last Quarter
Apr 10
New
Apr 18
First Quarter

Hourly Weather History & Observations

Time (CDT) Temp. Windchill Dew Point Humidity Pressure Visibility Wind Dir Wind Speed Gust Speed Precip Events Conditions
12:53 AM 25.0 °F 20.7 °F 10.9 °F 55% 30.14 in 10.0 mi SSE 3.5 mph - N/A   Clear
1:53 AM 26.1 °F 20.5 °F 10.0 °F 51% 30.12 in 10.0 mi East 4.6 mph - N/A   Clear
2:53 AM 26.1 °F 20.5 °F 10.9 °F 53% 30.11 in 10.0 mi East 4.6 mph - N/A   Clear
3:53 AM 27.0 °F 20.5 °F 12.0 °F 53% 30.08 in 10.0 mi East 5.8 mph - N/A   Clear
4:53 AM 26.1 °F 18.4 °F 10.9 °F 53% 30.07 in 10.0 mi East 6.9 mph - N/A   Clear
5:53 AM 25.0 °F 18.1 °F 10.9 °F 55% 30.07 in 10.0 mi ESE 5.8 mph - N/A   Clear
6:53 AM 26.1 °F 16.2 °F 10.9 °F 53% 30.09 in 10.0 mi ESE 10.4 mph - N/A   Overcast
7:53 AM 26.1 °F 16.8 °F 10.9 °F 53% 30.09 in 10.0 mi East 9.2 mph - N/A   Overcast
8:53 AM 27.0 °F 16.7 °F 10.9 °F 51% 30.07 in 10.0 mi East 11.5 mph - N/A   Overcast
9:53 AM 27.0 °F 15.2 °F 10.9 °F 51% 30.03 in 10.0 mi East 15.0 mph - N/A   Overcast
10:53 AM 27.0 °F 15.2 °F 12.9 °F 56% 30.03 in 4.0 mi ESE 15.0 mph - 0.00 in Snow Light Snow
11:00 AM 26.6 °F 14.7 °F 14.0 °F 59% 30.00 in 2.0 mi ESE 15.0 mph 19.6 mph 0.00 in Snow Light Snow
11:12 AM 26.6 °F 17.5 °F 17.6 °F 69% 30.01 in 1.8 mi ESE 9.2 mph - 0.00 in Snow Light Snow
11:33 AM 24.8 °F 13.4 °F 19.4 °F 80% 30.01 in 1.0 mi ESE 12.7 mph - 0.00 in Snow Light Snow
11:40 AM 24.8 °F 14.6 °F 19.4 °F 80% 30.01 in 0.8 mi ESE 10.4 mph - 0.00 in Snow Light Snow
11:53 AM 25.0 °F 15.5 °F 19.9 °F 81% 30.04 in 0.8 mi ESE 9.2 mph - 0.00 in Snow Light Snow
12:01 PM 24.8 °F 14.0 °F 19.4 °F 80% 30.00 in 1.0 mi East 11.5 mph - 0.00 in Snow Light Snow
12:12 PM 24.8 °F 12.9 °F 19.4 °F 80% 29.99 in 1.0 mi ESE 13.8 mph - 0.00 in Snow Light Snow
12:35 PM 24.8 °F 15.3 °F 21.2 °F 86% 29.99 in 0.8 mi East 9.2 mph - 0.01 in Snow Light Snow
12:53 PM 25.0 °F 14.8 °F 21.0 °F 85% 30.01 in 0.8 mi East 10.4 mph - 0.01 in Snow Light Snow
1:10 PM 26.6 °F 18.2 °F 21.2 °F 80% 29.97 in 1.0 mi East 8.1 mph - 0.00 in Snow Light Snow
1:26 PM 26.6 °F 17.5 °F 21.2 °F 80% 29.97 in 2.0 mi ESE 9.2 mph 17.3 mph 0.00 in Snow Light Snow
1:33 PM 26.6 °F 17.5 °F 21.2 °F 80% 29.96 in 3.0 mi East 9.2 mph - 0.00 in Snow Light Snow
1:53 PM 26.1 °F 16.2 °F 21.9 °F 84% 29.99 in 5.0 mi ESE 10.4 mph - 0.00 in Snow Light Snow
2:53 PM 27.0 °F 15.2 °F 21.9 °F 81% 29.96 in 10.0 mi East 15.0 mph 20.7 mph 0.00 in   Overcast
3:30 PM 26.6 °F 16.2 °F 21.2 °F 80% 29.92 in 3.0 mi ESE 11.5 mph - 0.00 in Snow Light Snow
3:45 PM 26.6 °F 16.2 °F 21.2 °F 80% 29.91 in 4.0 mi ESE 11.5 mph - 0.00 in Snow Light Snow
3:53 PM 27.0 °F 15.6 °F 21.9 °F 81% 29.94 in 5.0 mi ESE 13.8 mph 19.6 mph 0.00 in Snow Light Snow
4:01 PM 26.6 °F 17.5 °F 21.2 °F 80% 29.91 in 6.0 mi ESE 9.2 mph 19.6 mph 0.00 in Snow Light Snow
4:09 PM 26.6 °F 15.7 °F 23.0 °F 86% 29.91 in 8.0 mi East 12.7 mph - 0.00 in   Overcast
4:40 PM 26.6 °F 17.5 °F 21.2 °F 80% 29.90 in 10.0 mi ESE 9.2 mph - 0.00 in   Overcast
4:53 PM 27.0 °F 18.7 °F 23.0 °F 85% 29.94 in 10.0 mi ESE 8.1 mph - 0.00 in   Overcast
5:53 PM 27.0 °F 18.7 °F 23.0 °F 85% 29.94 in 10.0 mi ESE 8.1 mph 16.1 mph N/A   Overcast
6:53 PM 27.0 °F 18.7 °F 24.1 °F 89% 29.94 in 3.0 mi East 8.1 mph - N/A   Overcast
7:20 PM 26.6 °F 19.1 °F 24.8 °F 93% 29.92 in 4.0 mi East 6.9 mph - N/A   Overcast
7:53 PM 27.0 °F 19.5 °F 25.0 °F 92% 29.95 in 4.0 mi East 6.9 mph - N/A   Overcast
8:53 PM 28.0 °F 18.6 °F 25.0 °F 88% 29.95 in 3.0 mi East 10.4 mph - N/A   Overcast
9:53 PM 28.0 °F 20.0 °F 26.1 °F 92% 29.96 in 5.0 mi East 8.1 mph - N/A   Overcast
10:53 PM 28.0 °F 19.3 °F 26.1 °F 92% 29.96 in 2.5 mi East 9.2 mph - N/A   Overcast
11:29 PM 28.4 °F 20.4 °F 26.6 °F 93% 29.92 in 2.5 mi East 8.1 mph - N/A   Overcast
11:53 PM 28.0 °F 20.8 °F 26.1 °F 92% 29.96 in 3.0 mi East 6.9 mph - N/A   Overcast